{"data":{"norad_id":31698,"epoch":"2026-09-19T10:46:56.503776Z","epoch_age_seconds":105275,"freshness":"FRESH","line1":"1 31698U 07026A   26262.44926509  .00000025  00000+0  43892-5 0  9996","line2":"2 31698  97.4471 268.8201 0001571  90.6154 269.5261 15.19151780 67537","mean_motion":15.1915178,"eccentricity":0.0001571,"inclination_deg":97.4471,"raan_deg":268.8201,"arg_perigee_deg":90.6154,"mean_anomaly_deg":269.5261,"bstar":4.3892e-6,"rev_number":6753,"period_min":94.789738521058,"perigee_km":507.32095071493,"apogee_km":509.4847015283,"semimajor_km":6886.5398261216,"source":"CELESTRAK","updated_at":"2026-09-20T09:00:33.886593Z"}}